Wappingers Falls, NY

12:30 AM EST on February 14, 2016 (GMT -0500)
Dutchess County

Weather History for KPOU - August, 2013

Change the Weather History Date:

Thursday, August 8, 2013

  Actual Average Record
Temperature  
Mean Temperature 78 °F 72 °F  
Max Temperature 84 °F 84 °F 96 °F (2001)
Min Temperature 71 °F 61 °F 48 °F (1957)
Degree Days  
Heating Degree Days 0 0  
Month to date heating degree days 1 0  
Since 1 June heating degree days 32 54  
Since 1 July heating degree days 1 5  
Cooling Degree Days 13 7  
Month to date cooling degree days 38 63  
Year to date cooling degree days 628 466  
Since 1 June cooling degree days 575 430  
Growing Degree Days 26 (Base 50)    
Moisture  
Dew Point 68 °F    
Average Humidity 75    
Maximum Humidity 87    
Minimum Humidity 63    
Precipitation  
Precipitation T in 0.14 in 0.88 in (1985)
Month to date precipitation 0.43 1.24  
Year to date precipitation 24.04 27.82  
Sea Level Pressure  
Sea Level Pressure 30.01 in    
Wind  
Wind Speed 5 mph (SSE)    
Max Wind Speed 13 mph    
Max Gust Speed 17 mph    
Visibility 10 miles    
Events Rain    
T = Trace of Precipitation, MM = Missing Value Source: NWS Daily Summary

Daily Weather History Graph

Daily Weather History Graph

Search for Another Location

Airport or City:

Trip Planner

Search our weather history database for the weather conditions in past years. The results will help you decide how hot, cold, wet, or windy it might be!

Date:

Astronomy

Aug. 08, 2013 Rise Set
Actual Time 5:57 AM EDT 8:04 PM EDT
Civil Twilight 5:26 AM EDT 8:34 PM EDT
Nautical Twilight 4:49 AM EDT 9:12 PM EDT
Astronomical Twilight 4:07 AM EDT 9:53 PM EDT
Moon 7:43 AM EDT (8/8) 8:38 PM EDT (8/8)
Length of Visible Light 15h 08m
Length of Day
14h 07m
Waxing Crescent, 3% of the Moon is Illuminated
Aug 8
Waxing Crescent
Aug 14
First Quarter
Aug 20
Full
Aug 28
Last Quarter
Sep 5
New

Hourly Weather History & Observations

Time (EDT) Temp. Heat Index Dew Point Humidity Pressure Visibility Wind Dir Wind Speed Gust Speed Precip Events Conditions
12:53 AM 71.1 °F - 66.9 °F 87% 30.04 in 10.0 mi Calm Calm - 0.01 in   Overcast
1:53 AM 72.0 °F - 66.9 °F 84% 30.02 in 10.0 mi South 4.6 mph - 0.00 in   Overcast
2:53 AM 72.0 °F - 66.9 °F 84% 30.02 in 10.0 mi SSE 4.6 mph - N/A   Overcast
3:53 AM 72.0 °F - 66.9 °F 84% 30.02 in 10.0 mi South 5.8 mph - N/A   Overcast
4:19 AM 71.6 °F - 66.2 °F 83% 30.02 in 10.0 mi SSE 4.6 mph - N/A   Overcast
4:53 AM 71.1 °F - 66.9 °F 87% 30.00 in 10.0 mi SSE 3.5 mph - N/A   Partly Cloudy
5:09 AM 71.6 °F - 66.2 °F 83% 30.01 in 10.0 mi South 6.9 mph - N/A   Mostly Cloudy
5:39 AM 71.6 °F - 66.2 °F 83% 30.02 in 10.0 mi South 5.8 mph - N/A   Overcast
5:53 AM 72.0 °F - 66.9 °F 84% 30.01 in 10.0 mi South 5.8 mph - N/A   Overcast
6:41 AM 71.6 °F - 66.2 °F 83% 30.04 in 10.0 mi South 3.5 mph - N/A   Mostly Cloudy
6:53 AM 72.0 °F - 66.9 °F 84% 30.02 in 10.0 mi South 6.9 mph - N/A   Overcast
7:53 AM 72.0 °F - 66.9 °F 84% 30.03 in 10.0 mi Variable 3.5 mph - N/A   Overcast
8:14 AM 73.4 °F - 68.0 °F 83% 30.04 in 10.0 mi Calm Calm - N/A   Overcast
8:53 AM 73.9 °F - 68.0 °F 82% 30.04 in 10.0 mi South 4.6 mph - N/A   Overcast
9:22 AM 73.4 °F - 68.0 °F 83% 30.04 in 10.0 mi Calm Calm - N/A   Overcast
9:42 AM 73.4 °F - 68.0 °F 83% 30.04 in 10.0 mi SSE 3.5 mph - N/A   Overcast
9:53 AM 75.0 °F - 68.0 °F 79% 30.03 in 10.0 mi SSE 4.6 mph - N/A   Overcast
10:53 AM 78.1 °F - 69.1 °F 74% 30.02 in 10.0 mi Calm Calm - N/A   Overcast
11:53 AM 78.1 °F - 68.0 °F 71% 30.01 in 10.0 mi SE 4.6 mph - N/A   Overcast
12:53 PM 82.0 °F 85.5 °F 69.1 °F 65% 30.01 in 10.0 mi Variable 5.8 mph - N/A   Scattered Clouds
1:53 PM 82.9 °F 85.8 °F 68.0 °F 60% 30.00 in 10.0 mi SSW 5.8 mph - N/A   Mostly Cloudy
2:53 PM 80.1 °F 82.9 °F 69.1 °F 69% 30.01 in 10.0 mi South 5.8 mph - N/A   Overcast
3:53 PM 79.0 °F - 70.0 °F 74% 30.00 in 10.0 mi SSE 3.5 mph - N/A   Partly Cloudy
4:53 PM 82.0 °F 85.9 °F 70.0 °F 67% 29.98 in 10.0 mi South 6.9 mph - N/A   Overcast
5:53 PM 81.0 °F 84.9 °F 71.1 °F 72% 29.98 in 10.0 mi South 4.6 mph - N/A   Overcast
6:53 PM 75.9 °F - 69.1 °F 79% 29.98 in 10.0 mi Variable 4.6 mph - 0.00 in Rain Light Rain
7:53 PM 75.9 °F - 70.0 °F 82% 29.98 in 10.0 mi SSE 5.8 mph - N/A   Scattered Clouds
8:53 PM 75.0 °F - 70.0 °F 84% 29.99 in 10.0 mi South 4.6 mph - N/A   Clear
9:53 PM 75.0 °F - 70.0 °F 84% 30.00 in 10.0 mi South 4.6 mph - N/A   Partly Cloudy
10:53 PM 75.0 °F - 70.0 °F 84% 29.99 in 10.0 mi Variable 3.5 mph - N/A   Scattered Clouds
11:04 PM 73.4 °F - 69.8 °F 88% 30.00 in 10.0 mi SE 3.5 mph - N/A   Mostly Cloudy
11:53 PM 73.9 °F - 70.0 °F 87% 29.99 in 10.0 mi Calm Calm - N/A   Mostly Cloudy